Regional Weather Roundup
Issued by NWS

Home | Current Version | Previous Version | Graphics & Text | Print | Product List | Glossary Off
Versions: 1 2 3 4 5 6 7 8 9 10 11 12 13 14 15 16 17 18 19 20 21 22 23 24 25 26 27 28 29 30 31 32 33 34 35 36 37 38 39 40 41 42 43 44 45 46 47 48

000
ASUS43 KDMX 260707
RWRIA

WEATHER ROUNDUP FOR IOWA
NATIONAL WEATHER SERVICE DES MOINES IA
200 AM CDT SAT JUL 26 2014

NOTE: "FAIR" INDICATES FEW OR NO CLOUDS BELOW 12,000 FEET WITH NO
SIGNIFICANT WEATHER AND/OR OBSTRUCTIONS TO VISIBILITY.

* - THESE STATIONS ARE NOT NWS STATIONS...THUS NOT UNDER NWS
QUALITY CONTROL.  THEY ALSO DO NOT REPORT WEATHER SUCH
AS PRECIPITATION OR FOG.

IAZ001>003-012>014-020>022-031>034-043>046-260800-
   NORTHWEST IOWA

CITY           SKY/WX    TMP DP  RH WIND       PRES   REMARKS
CARROLL *      CLOUDY    72  70  94 N3        29.83S
CHEROKEE *     MOCLDY    70  70 100 CALM      29.83S FOG
DENISON *      CLOUDY    72  72 100 CALM      29.82S
LE MARS *      CLEAR     70  68  94 CALM      29.84S
ORANGE CITY *  CLEAR     72  68  88 CALM      29.86R FOG
SHELDON *      MOCLDY    68  68 100 CALM      29.85R FOG
SIOUX CITY     PTCLDY    71  69  93 CALM      29.82F FOG
SPENCER        MOCLDY    68  66  93 CALM      29.83F FOG
STORM LAKE *   CLEAR     70  70 100 SE5       29.85S FOG
$$

IAZ055>058-069>071-079>083-090>094-260800-
   SOUTHWEST IOWA

CITY           SKY/WX    TMP DP  RH WIND       PRES   REMARKS
ATLANTIC *     CLOUDY    70  68  94 N6        29.81R FOG
AUDUBON *      PTCLDY    73  70  88 CALM      29.84R
CLARINDA *     CLEAR     72  72 100 N3        29.80R
COUNCIL BLFS *   N/A     73  73 100 NE6       29.81R
CRESTON *      CLEAR     70  70 100 N7        29.81R
HARLAN  *      CLEAR     70  70 100 N7        29.85S
LAMONI         PTCLDY    76  73  91 S9        29.78S
RED OAK *      PTCLDY    72  72 100 NE5       29.80R
SHENANDOAH *   CLEAR     72  72 100 NE5       29.79S
$$

IAZ047>049-059>061-072>074-084-260800-
   CENTRAL IOWA

CITY           SKY/WX    TMP DP  RH WIND       PRES   REMARKS
AMES           CLOUDY    72  70  93 N5        29.81S
ANKENY *       CLOUDY    72  70  94 NE3       29.80F
CHARITON *     CLEAR     70  68  94 N5        29.78S
DES MOINES     PTCLDY    73  69  87 E7        29.79S
GRINNELL*      CLEAR     68  66  94 NE5       29.82S
KNOXVILLE *    CLEAR     70  68  94 N6        29.78R
MARSHALLTOWN   CLOUDY    72  68  87 SE9       29.81F
PELLA *        CLEAR     70  68  94 CALM      29.81R
PERRY *          N/A     72  70  94 CALM      29.82R FOG
$$

IAZ004>006-015-016-023>025-035-036-260800-
   NORTH CENTRAL IOWA

CITY           SKY/WX    TMP DP  RH WIND       PRES   REMARKS
ALGONA *       CLEAR     70  70 100 S3        29.83F
CLARION *      MOCLDY    72  72 100 S5        29.83F
ESTHERVILLE    MOCLDY    67  67 100 S5        29.82F FOG
FORT DODGE *   CLOUDY    72  70  94 CALM      29.84S
MASON CITY     CLOUDY    71  70  96 S3        29.86R FOG
FOREST CITY *  CLOUDY    72  70  94 CALM      29.84S
IOWA FALLS *   CLOUDY    70  68  94 CALM      29.85S FOG
$$

IAZ007>011-017>019-026>030-037>042-050>054-066-260800-
   NORTHEAST IOWA

CITY           SKY/WX    TMP DP  RH WIND       PRES   REMARKS
CEDAR RAPIDS   MOCLDY    68  63  84 E5        29.82F
CHARLES CITY * CLOUDY    68  68 100 SE5       29.86S FOG
CLINTON *      MOCLDY    66  61  82 SE6       29.88F
DECORAH *      CLOUDY    66  64  94 S5        29.86S FOG
DUBUQUE        CLOUDY    65  63  93 S8        29.87F
MONTICELLO *   CLOUDY    68  64  88 E7        29.85F
OELWEIN *      CLOUDY    66  64  94 SE6       29.86F
WATERLOO       CLOUDY    69  65  86 E8        29.83F
$$

IAZ064-065-067-068-078-260800-
   EAST CENTRAL IOWA

CITY           SKY/WX    TMP DP  RH WIND       PRES   REMARKS
DAVENPORT      CLOUDY    68  61  78 SE12      29.84F
IOWA CITY      PTCLDY    68  64  87 E5        29.83F
MT. PLEASANT * CLEAR     70  61  73 SE7       29.80F
MUSCATINE *    MOCLDY    70  63  78 SE7       29.82F
QUAD CITIES    MOCLDY    68  62  81 SE6       29.83F
$$

IAZ062-063-075>077-085>089-095>099-260800-
   SOUTHEAST IOWA

CITY           SKY/WX    TMP DP  RH WIND       PRES   REMARKS
BURLINGTON     CLEAR     69  63  81 SE9       29.81F
FAIRFIELD *    CLEAR     70  64  83 SE9       29.79F
FORT MADISON * CLEAR     70  64  83 S9        29.82F
KEOKUK *       PTCLDY    70  64  83 SE8       29.81F
OSKALOOSA *      N/A     68  66  94 SE6       29.79F
CENTERVILLE *  CLEAR     72  72 100 S5        29.80S
OTTUMWA        CLEAR     70  67  90 SE6       29.78F
WASHINGTON *   CLEAR     68  63  83 SE8       29.80F
$$

ABBREVIATIONS USED IN REMARKS
   TC - TEMPERATURES IN CELSIUS
  WCI - WIND CHILL INDEX
   HX - HEAT INDEX
  VSB - VISIBILITY
$$




USA.gov is the U.S. government's official web portal to all federal, state and local government web resources and services.